Content
SEND FEEDBACK

Daily
Averages
Monthly
Summary
United States of America

CHICAGO, ILLINOIS


Home > North America > United States > Illinois
Elevation: 674 feet     Latitude: 41 59N     Longitude: 087 54W

WEATHER
 
SELECT A DAY
Number of Records: 194,883;   Date Range: 7/8/95 - 7/29/14
 
SHARE

PRINT THIS DATA

[ ← Previous Day ]
WEATHER ALMANAC - JANUARY 17, 2013
[ Next Day → ]
[ °C ]   °F
Weather ElementAverageHighLow
Temperature26 °F34 °F (1:52 am)19.9 °F (11:52 pm)
Dewpoint10.9 °F28 °F (1:52 am)1.9 °F (10:52 am)
Humidity54.5 %85 % (12:52 am)33 % (10:52 am)
Barometer30.33 in30.45 in (11:52 pm)30.11 in (12:52 am)
Wind Speed7.2 mph15 mph (9:52 am)
Wind Gust20.7 mph (12:52 pm)
Weather ElementAverage
Visibility9.9 mi
Wind DirectionWSW (258.8 °)

Weather ElementTotal
Precipitation---
Heating Degree Days38.1 (Base 65)
Averaged from 24 records on January 17, 2013
WEATHER CONDITIONS BREAKOUT
WIND DIRECTION BREAKOUT
WEATHER BY HOUR - JANUARY 17, 2013
[ °C ]   °F
Local TimeTemperatureDewpointHumidityBarometerVisibilityWind DirectionWind SpeedGust SpeedPrecipitationEventsConditions
12:52 AM30.9 °F27.0 °F85 %30.11 in9.0 miCalmOvercast
1:52 AM34.0 °F28.0 °F79 %30.14 in9.0 miWest (270°)4.6 mphOvercast
2:52 AM30.9 °F18.0 °F59 %30.17 in10.0 miNNW (340°)9.2 mphMostly Cloudy
3:12 AM30.2 °F17.6 °F60 %30.16 in10.0 miNNW (330°)8.1 mphPartly Cloudy
3:52 AM28.0 °F17.1 °F63 %30.21 in10.0 miNNW (330°)8.1 mphClear
5:52 AM25.0 °F12.0 °F58 %30.27 in10.0 miNNW (340°)6.9 mphClear
6:52 AM23.0 °F12.0 °F63 %30.29 in10.0 miNW (320°)11.5 mphClear
7:52 AM23.0 °F10.9 °F60 %30.32 in10.0 miNNW (330°)8.1 mphClear
8:52 AM24.1 °F5.0 °F44 %30.35 in10.0 miNNW (340°)11.5 mph19.6 mphClear
9:52 AM25.0 °F3.0 °F39 %30.35 in10.0 miNW (320°)15.0 mphClear
10:52 AM28.0 °F1.9 °F33 %30.35 in10.0 miNNW (330°)11.5 mphClear
11:52 AM28.0 °F3.9 °F36 %30.35 in10.0 miNNW (330°)10.4 mphClear
12:52 PM28.9 °F5.0 °F36 %30.35 in10.0 miWNW (300°)11.5 mph20.7 mphClear
1:52 PM28.0 °F6.1 °F39 %30.35 in10.0 miWNW (300°)11.5 mphClear
2:52 PM28.0 °F6.1 °F39 %30.36 in10.0 miNW (320°)12.7 mphClear
3:52 PM27.0 °F7.0 °F43 %30.36 in10.0 miNNW (340°)9.2 mphClear
4:52 PM25.0 °F8.1 °F49 %30.38 in10.0 miWNW (300°)5.8 mphClear
5:52 PM24.1 °F8.1 °F51 %30.40 in10.0 miWest (270°)4.6 mphClear
6:52 PM24.1 °F9.0 °F53 %30.42 in10.0 miWest (260°)4.6 mphClear
7:52 PM23.0 °F10.0 °F58 %30.41 in10.0 miCalmClear
8:52 PM21.9 °F10.9 °F63 %30.43 in10.0 miWest (260°)3.5 mphClear
9:52 PM21.9 °F10.9 °F63 %30.43 in10.0 miCalmClear
10:52 PM21.0 °F10.9 °F65 %30.42 in10.0 miCalmClear
11:52 PM19.9 °F12.0 °F71 %30.45 in10.0 miWest (280°)3.5 mphScattered Clouds
Hourly data recorded from KPWK, located miles away from Chicago, Illinois







STORIES FROM OUR PARTNERS